Flag for Germany Weather past 2 weeks in Elmshorn, Schleswig-Holstein, Germany

Now
55 °F

Sunny.


Feels Like: 53 °F
Forecast: 47 / 63 °F
Wind: 10 mph from Northeast

Location: Hamburg-Fuhlsbuettel


UV Index: 0 (Low)

Visibility: 10 mi


Pressure: 29.86 "Hg

Humidity: 77%

Dew point: 48 °F

Location of ElmshornLocation

Historic Weather in Elmshorn

°F

Elmshorn temperature yesterday

Maximum temperature yesterday: 61 °F (at 3:20 PM)
Minimum temperature yesterday: 37 °F (at 3:50 AM)
Average temperature yesterday: 50 °F

Past Weeks' High & Low Weather Summary

 TemperatureHumidityPressure
High68 °F (Apr 20, 1:50 PM)100% (Apr 5, 9:20 PM)30.45 "Hg (Apr 5, 9:20 PM)
Low30 °F (Apr 16, 3:50 AM)29% (Apr 16, 5:20 PM)29.65 "Hg (Apr 8, 5:20 AM)
Average49 °F77%30.01 "Hg
* Reported Apr 5 8:20 PM — Apr 20 8:50 PM, Elmshorn, Weather by CustomWeather, © 2014

Note: Actual official high and low records may vary slightly from our data, if they occured in-between our weather recording intervals... More about our weather records

Advertising

Historic Weather Conditions — Data for Previous 24 hours

 ConditionsComfort  
Time TempWeatherWind HumidityBarometerVisibility
8:50 PM
Apr 20
59 °FSunny.13 mph72%29.86 "Hg10 mi
8:20 PM59 °FPartly sunny.12 mph72%29.86 "HgN/A
7:50 PM61 °FPartly sunny.10 mph68%29.86 "HgN/A
7:20 PM63 °FScattered clouds.12 mph64%29.86 "HgN/A
6:50 PM63 °FScattered clouds.14 mph64%29.86 "HgN/A
6:20 PM64 °FScattered clouds.15 mph64%29.83 "HgN/A
5:50 PM64 °FPassing clouds.15 mph64%29.83 "HgN/A
5:20 PM64 °FPassing clouds.16 mph64%29.83 "HgN/A
4:50 PM66 °FPassing clouds.15 mph60%29.86 "HgN/A
4:20 PM64 °FPassing clouds.14 mph64%29.86 "HgN/A
3:50 PM66 °FScattered clouds.16 mph60%29.86 "HgN/A
3:20 PM66 °FPassing clouds.17 mph60%29.89 "HgN/A
2:50 PM66 °FPassing clouds.18 mph60%29.89 "HgN/A
2:20 PM66 °FScattered clouds.18 mph52%29.89 "HgN/A
1:50 PM68 °FScattered clouds.16 mph60%29.89 "HgN/A
1:20 PM66 °FPassing clouds.16 mph60%29.89 "HgN/A
12:50 PM66 °FPassing clouds.15 mph60%29.92 "HgN/A
12:20 PM64 °FSunny.16 mph60%29.92 "Hg10 mi
11:50 AM63 °FPassing clouds.14 mph68%29.92 "HgN/A
11:20 AM61 °FPassing clouds.15 mph68%29.95 "HgN/A
10:50 AM59 °FSunny.13 mph72%29.95 "Hg10 mi
10:20 AM57 °FPassing clouds.13 mph72%29.95 "HgN/A
9:50 AM57 °FSunny.14 mph72%29.95 "Hg10 mi
9:20 AM54 °FSunny.14 mph82%29.95 "Hg10 mi
8:50 AM52 °FSunny.14 mph82%29.95 "Hg10 mi
8:20 AM50 °FSunny.15 mph88%29.95 "Hg10 mi
7:50 AM48 °FSunny.12 mph87%29.98 "Hg10 mi
7:20 AM46 °FSunny.9 mph93%29.98 "Hg10 mi
6:50 AM46 °FPassing clouds.9 mph87%29.98 "HgN/A
6:20 AM45 °FPassing clouds.8 mph93%29.98 "HgN/A
5:50 AM45 °FClear.8 mph93%29.98 "Hg10 mi
5:20 AM46 °FPassing clouds.6 mph87%29.98 "HgN/A
4:50 AM46 °FPassing clouds.7 mph87%29.98 "HgN/A
4:20 AM46 °FPassing clouds.7 mph87%30.01 "HgN/A
3:50 AM46 °FPassing clouds.7 mph87%30.01 "HgN/A
3:20 AM46 °FClear.8 mph87%30.01 "Hg10 mi
2:50 AM46 °FClear.9 mph87%30.01 "Hg10 mi
2:20 AM48 °FPassing clouds.10 mph82%30.01 "HgN/A
1:50 AM48 °FClear.10 mph82%30.01 "Hg10 mi
1:20 AM48 °FClear.10 mph82%30.04 "Hg10 mi
12:50 AM48 °FClear.10 mph82%30.04 "Hg10 mi
12:20 AM50 °FClear.10 mph76%30.07 "Hg10 mi
11:50 PM
Apr 19
50 °FClear.9 mph76%30.07 "Hg10 mi
11:20 PM50 °FClear.12 mph76%30.07 "Hg10 mi
10:50 PM52 °FPassing clouds.9 mph72%30.07 "HgN/A
10:20 PM52 °FClear.15 mph72%30.07 "Hg10 mi
9:50 PM52 °FClear.16 mph72%30.07 "Hg10 mi
9:20 PM54 °FSunny.16 mph67%30.07 "Hg10 mi
Weather by CustomWeather, © 2014

See weather overview